Current weather by "City, St" or "zip code"  
 

Current Conditions: East Milton, MA

NULL


59.0 F

Last Updated on Sep 18 2020, 1:51 am EDT
Humidity: 75%
Wind Speed: NE 12.7 G 21.9 mph
Barometer 29.97 in
Dewpoint: 51.1 F
Visibility: NULL mi
Precip: --
Heat Index: NA
Wind Chill: 57 F
Current conditions at:

East Milton, MA (KMQE)

Lat: 42.21222 Lon: 71.11472

Local Radar Image active severe weather and emergency alerts image image weather storm and storm spotter reports image weather observation monitoring service image
Local
Radar
Active
Alerts
Storm Reports Obs
Monitoring

Sign-up For Email & Text Message Weather Alert Notification Services



Advertise Here

Observation History for East Milton, MA


Time Wind
(mph)
Vis
(mi)
Weather Precip (in) Temperature (F) Relative
Humidity
Wind
Chill
(F)
Heat
Index
(F)
Pressure
Air Dwpt altimeter
(in)
sea level
(mb)
Rmks
1:51 am EDT NE 12.7 G 21.9 NULL NULL -- 59.0 51.1 75% 57 NA 29.97 1015.8
12:51 am EDT NE 12.7 G 19.6 NULL NULL -- 59.0 52.0 78% 57 NA 29.99 1016.3
11:51 pm EDT NE 13.8 G 21.9 NULL NULL -- 60.0 53.1 78% 58 NA 29.99 1016.4
10:51 pm EDT NE 10.4 NULL NULL -- 61.0 55.0 81% 60 NA 30.00 1016.5
9:51 pm EDT N 8.1 NULL NULL -- 64.0 55.0 73% NA NA 29.99 1016.6
8:51 pm EDT S 3.5 NULL NULL -- 66.0 54.0 65% NA NA 30.00 1016.6
7:51 pm EDT W 6.9 NULL NULL -- 67.0 52.0 59% NA NA 29.99 1016.3
6:51 pm EDT W 6.9 NULL NULL -- 68.0 53.1 59% NA NA 29.97 1015.9
5:51 pm EDT W 8.1 NULL NULL -- 69.0 52.0 55% NA NA 29.97 1015.6
4:51 pm EDT W 9.2 NULL NULL -- 71.0 53.1 53% NA NA 29.96 1015.5
3:51 pm EDT W 11.5 NULL NULL -- 73.0 55.0 53% NA NA 29.97 1015.6
2:51 pm EDT W 12.7 G 19.6 NULL NULL -- 74.0 55.9 54% NA NA 29.98 1015.9
1:51 pm EDT SW 9.2 NULL NULL -- 74.0 55.9 54% NA NA 29.98 1016.1
12:51 pm EDT SW 17.3 G 24.2 NULL NULL -- 73.0 55.9 55% NA NA 30.00 1016.6
11:51 am EDT SW 8.1 G 17.3 NULL NULL -- 72.0 55.9 57% NA NA 30.01 1017.0
10:51 am EDT SW 12.7 G 23.0 NULL NULL -- 68.0 55.0 63% NA NA 30.03 1017.8
9:51 am EDT SW 10.4 G 21.9 NULL NULL -- 63.0 55.0 76% 62 NA 30.04 1018.1
8:51 am EDT SW 13.8 G 19.6 NULL NULL -- 61.0 55.0 81% 59 NA 30.03 1017.8
7:51 am EDT SW 12.7 NULL NULL -- 59.0 55.0 87% 57 NA 30.03 1017.9
6:51 am EDT SW 15.0 NULL NULL -- 58.0 55.0 90% 55 NA 30.03 1017.8
5:51 am EDT SW 13.8 NULL NULL -- 58.0 55.9 93% 55 NA 30.03 1017.9
4:51 am EDT SW 11.5 NULL NULL -- 58.0 57.0 97% 56 NA 30.04 1018.1
3:51 am EDT SW 13.8 NULL NULL -- 58.0 57.0 97% 55 NA 30.04 1018.2
2:51 am EDT SW 13.8 G 21.9 NULL NULL -- 60.0 57.0 90% 58 NA 30.05 1018.4

Regional Weather Observation


Laurence G Hanscom Field Airport, MA (KBED)

Fair
59.0 F

East Milton, MA (KMQE)

NULL
59.0 F

Norwood, Norwood Memorial Airport, MA (KOWD)

Fair
63.0 F

Fitchburg, Fitchburg Municipal Airport, MA (KFIT)

Mostly Cloudy
58.0 F

Nashua - Boire Field Airport, NH (KASH)

Overcast
60.0 F

Worcester, Worcester Regional Airport, MA (KORH)

Fair
58.0 F